Change the Weather History Date:

Friday, March 29, 2013

  Actual Average (KBFD) Record (KBFD)
Temperature  
Mean Temperature 36 °F 37 °F  
Max Temperature 41 °F 47 °F 74 °F (1977)
Min Temperature 32 °F 26 °F 9 °F (1959)
Degree Days  
Heating Degree Days 28 23  
Month to date heating degree days 815  
Since 1 July heating degree days 6385  
Cooling Degree Days 0 0  
Month to date cooling degree days 0  
Year to date cooling degree days 0  
Moisture  
Dew Point 26 °F    
Average Humidity 71    
Maximum Humidity 93    
Minimum Humidity 45    
Precipitation  
Precipitation 0.00 in 0.11 in 0.49 in (1984)
Month to date precipitation 3.13  
Year to date precipitation 8.77  
Sea Level Pressure  
Sea Level Pressure 30.13 in    
Wind  
Wind Speed 3 mph (WNW)    
Max Wind Speed 12 mph    
Max Gust Speed 21 mph    
Visibility 10 miles    
Events      
T = Trace of Precipitation, MM = Missing Value Source: NWS Daily Summary

Daily Weather History Graph

Daily Weather History Graph

Search for Another Location

Airport or City:

Trip Planner

Search our weather history database for the weather conditions in past years. The results will help you decide how hot, cold, wet, or windy it might be!

Date:

Astronomy

Mar. 29, 2013 Rise Set
Actual Time 7:00 AM EDT 7:36 PM EDT
Civil Twilight 6:32 AM EDT 8:04 PM EDT
Nautical Twilight 5:59 AM EDT 8:37 PM EDT
Astronomical Twilight 5:25 AM EDT 9:12 PM EDT
Moon 10:38 PM EDT (3/29) 8:05 AM EDT (3/29)
Length of Visible Light 13h 31m
Length of Day
12h 35m
Waning Gibbous, 93% of the Moon is Illuminated
Mar 29
Waning Gibbous
Apr 3
Last Quarter
Apr 10
New
Apr 18
First Quarter
Apr 25
Full

Hourly Weather History & Observations

Time (EDT) Temp. Windchill Dew Point Humidity Pressure Visibility Wind Dir Wind Speed Gust Speed Precip Events Conditions
12:15 AM 32.0 °F - 30.2 °F 93% 30.16 in 10.0 mi Calm Calm - N/A   Overcast
12:35 AM 32.0 °F - 30.2 °F 93% 30.15 in 10.0 mi Calm Calm - N/A   Overcast
12:55 AM 32.0 °F - 30.2 °F 93% 30.15 in 10.0 mi Calm Calm - N/A   Overcast
1:15 AM 32.0 °F - 30.2 °F 93% 30.15 in 10.0 mi Calm Calm - N/A   Overcast
1:35 AM 32.0 °F - 30.2 °F 93% 30.16 in 10.0 mi Calm Calm - N/A   Overcast
1:55 AM 32.0 °F - 30.2 °F 93% 30.15 in 10.0 mi Calm Calm - N/A   Overcast
2:15 AM 32.0 °F - 30.2 °F 93% 30.15 in 10.0 mi Calm Calm - N/A   Overcast
2:35 AM 32.0 °F - 30.2 °F 93% 30.15 in 10.0 mi Calm Calm - N/A   Overcast
2:55 AM 32.0 °F - 30.2 °F 93% 30.15 in 10.0 mi Calm Calm - N/A   Overcast
3:15 AM 32.0 °F - 30.2 °F 93% 30.15 in 10.0 mi Calm Calm - N/A   Overcast
3:35 AM 32.0 °F - 30.2 °F 93% 30.14 in 10.0 mi Calm Calm - N/A   Overcast
3:55 AM 32.0 °F - 30.2 °F 93% 30.14 in 10.0 mi Calm Calm - N/A   Overcast
4:15 AM 32.0 °F 27.5 °F 28.4 °F 87% 30.14 in 10.0 mi West 4.6 mph - N/A   Overcast
4:35 AM 32.0 °F 26.4 °F 28.4 °F 87% 30.14 in 10.0 mi West 5.8 mph - N/A   Overcast
4:55 AM 32.0 °F - 28.4 °F 87% 30.14 in 10.0 mi Calm Calm - N/A   Overcast
5:15 AM 32.0 °F 27.5 °F 28.4 °F 87% 30.14 in 10.0 mi West 4.6 mph - N/A   Overcast
5:35 AM 32.0 °F - 28.4 °F 87% 30.14 in 10.0 mi Calm Calm - N/A   Overcast
5:55 AM 32.0 °F 28.7 °F 28.4 °F 87% 30.14 in 10.0 mi West 3.5 mph - N/A   Overcast
6:15 AM 32.0 °F 27.5 °F 28.4 °F 87% 30.14 in 10.0 mi WNW 4.6 mph - N/A   Overcast
6:35 AM 32.0 °F 28.7 °F 28.4 °F 87% 30.14 in 10.0 mi West 3.5 mph - N/A   Overcast
6:55 AM 32.0 °F 26.4 °F 28.4 °F 87% 30.14 in 10.0 mi WNW 5.8 mph - N/A   Overcast
7:15 AM 32.0 °F 26.4 °F 28.4 °F 87% 30.15 in 10.0 mi WNW 5.8 mph - N/A   Overcast
7:35 AM 32.0 °F 28.7 °F 28.4 °F 87% 30.15 in 10.0 mi West 3.5 mph - N/A   Overcast
7:55 AM 32.0 °F - 28.4 °F 87% 30.15 in 10.0 mi Calm Calm - N/A   Overcast
8:15 AM 32.0 °F - 28.4 °F 87% 30.15 in 10.0 mi Calm Calm - N/A   Overcast
8:35 AM 32.0 °F - 28.4 °F 87% 30.16 in 10.0 mi Calm Calm - N/A   Overcast
8:55 AM 32.0 °F - 28.4 °F 87% 30.15 in 10.0 mi Calm Calm - N/A   Overcast
9:15 AM 32.0 °F - 28.4 °F 87% 30.16 in 10.0 mi Calm Calm - N/A   Overcast
9:35 AM 33.8 °F - 28.4 °F 81% 30.16 in 10.0 mi Calm Calm - N/A   Overcast
9:55 AM 33.8 °F - 28.4 °F 81% 30.15 in 10.0 mi Calm Calm - N/A   Overcast
10:15 AM 35.6 °F - 28.4 °F 75% 30.15 in 10.0 mi Calm Calm - N/A   Overcast
10:35 AM 35.6 °F 32.8 °F 28.4 °F 75% 30.15 in 10.0 mi NW 3.5 mph - N/A   Overcast
10:55 AM 37.4 °F 32.8 °F 28.4 °F 70% 30.15 in 10.0 mi WNW 5.8 mph - N/A   Overcast
11:15 AM 37.4 °F 32.8 °F 28.4 °F 70% 30.15 in 10.0 mi WNW 5.8 mph - N/A   Overcast
11:35 AM 37.4 °F 33.8 °F 26.6 °F 65% 30.15 in 10.0 mi WNW 4.6 mph - N/A   Overcast
11:55 AM 39.2 °F 34.2 °F 26.6 °F 61% 30.15 in 10.0 mi WNW 6.9 mph - N/A   Overcast
12:15 PM 39.2 °F 32.5 °F 26.6 °F 61% 30.14 in 10.0 mi WNW 10.4 mph - N/A   Overcast
12:35 PM 41.0 °F 36.4 °F 26.6 °F 57% 30.14 in 10.0 mi West 6.9 mph - N/A   Overcast
12:55 PM 41.0 °F 37.1 °F 26.6 °F 57% 30.13 in 10.0 mi WNW 5.8 mph - N/A   Overcast
1:15 PM 39.2 °F 33.6 °F 24.8 °F 56% 30.13 in 10.0 mi NW 8.1 mph - N/A   Overcast
1:35 PM 41.0 °F 35.8 °F 24.8 °F 53% 30.13 in 10.0 mi WNW 8.1 mph - N/A   Overcast
1:55 PM 41.0 °F 36.4 °F 24.8 °F 53% 30.12 in 10.0 mi West 6.9 mph - N/A   Overcast
2:15 PM 41.0 °F 36.4 °F 23.0 °F 49% 30.11 in 10.0 mi WNW 6.9 mph - N/A   Overcast
2:35 PM 37.4 °F 30.8 °F 23.0 °F 56% 30.11 in 10.0 mi WNW 9.2 mph 20.7 mph N/A   Overcast
2:55 PM 39.2 °F 34.2 °F 23.0 °F 52% 30.11 in 10.0 mi WNW 6.9 mph - N/A   Overcast
3:15 PM 41.0 °F 36.4 °F 23.0 °F 49% 30.11 in 10.0 mi WNW 6.9 mph 17.3 mph N/A   Overcast
3:35 PM 41.0 °F 37.1 °F 23.0 °F 49% 30.10 in 10.0 mi WNW 5.8 mph - N/A   Overcast
3:55 PM 41.0 °F 34.7 °F 23.0 °F 49% 30.10 in 10.0 mi West 10.4 mph 19.6 mph N/A   Overcast
4:15 PM 41.0 °F 35.8 °F 23.0 °F 49% 30.10 in 10.0 mi WNW 8.1 mph - N/A   Overcast
4:35 PM 39.2 °F 35.0 °F 21.2 °F 49% 30.10 in 10.0 mi NW 5.8 mph 20.7 mph N/A   Overcast
4:55 PM 41.0 °F 34.7 °F 21.2 °F 45% 30.10 in 10.0 mi WNW 10.4 mph 18.4 mph N/A   Overcast
5:15 PM 41.0 °F 35.8 °F 21.2 °F 45% 30.10 in 10.0 mi West 8.1 mph 18.4 mph N/A   Overcast
5:35 PM 41.0 °F 34.3 °F 21.2 °F 45% 30.10 in 10.0 mi WNW 11.5 mph 18.4 mph N/A   Mostly Cloudy
5:55 PM 41.0 °F 35.2 °F 21.2 °F 45% 30.10 in 10.0 mi NW 9.2 mph 16.1 mph N/A   Mostly Cloudy
6:15 PM 41.0 °F 35.2 °F 21.2 °F 45% 30.10 in 10.0 mi WNW 9.2 mph 18.4 mph N/A   Scattered Clouds
6:35 PM 39.2 °F 34.2 °F 21.2 °F 49% 30.11 in 10.0 mi WNW 6.9 mph - N/A   Scattered Clouds
6:55 PM 37.4 °F 33.8 °F 23.0 °F 56% 30.11 in 10.0 mi WNW 4.6 mph - N/A   Scattered Clouds
7:15 PM 37.4 °F 34.9 °F 23.0 °F 56% 30.11 in 10.0 mi WNW 3.5 mph - N/A   Scattered Clouds
7:35 PM 37.4 °F 33.8 °F 23.0 °F 56% 30.12 in 10.0 mi WNW 4.6 mph - N/A   Clear
7:55 PM 35.6 °F 31.7 °F 23.0 °F 60% 30.12 in 10.0 mi West 4.6 mph - N/A   Clear
8:15 PM 35.6 °F 32.8 °F 23.0 °F 60% 30.12 in 10.0 mi WNW 3.5 mph - N/A   Clear
8:35 PM 33.8 °F - 23.0 °F 65% 30.13 in 10.0 mi Calm Calm - N/A   Scattered Clouds
8:55 PM 35.6 °F - 23.0 °F 60% 30.13 in 10.0 mi Calm Calm - N/A   Overcast
9:15 PM 33.8 °F 30.8 °F 21.2 °F 60% 30.14 in 10.0 mi West 3.5 mph - N/A   Overcast
9:35 PM 33.8 °F 29.6 °F 21.2 °F 60% 30.14 in 10.0 mi West 4.6 mph - N/A   Overcast
9:55 PM 33.8 °F 30.8 °F 21.2 °F 60% 30.14 in 10.0 mi WNW 3.5 mph - N/A   Mostly Cloudy
10:15 PM 33.8 °F 28.6 °F 21.2 °F 60% 30.14 in 10.0 mi WNW 5.8 mph - N/A   Mostly Cloudy
10:35 PM 32.0 °F - 21.2 °F 64% 30.14 in 10.0 mi Calm Calm - N/A   Scattered Clouds
10:55 PM 32.0 °F 28.7 °F 21.2 °F 64% 30.14 in 10.0 mi West 3.5 mph - N/A   Clear
11:15 PM 32.0 °F 26.4 °F 23.0 °F 69% 30.14 in 10.0 mi West 5.8 mph - N/A   Clear
11:35 PM 32.0 °F 28.7 °F 23.0 °F 69% 30.13 in 10.0 mi West 3.5 mph - N/A   Clear
11:55 PM 32.0 °F 28.7 °F 23.0 °F 69% 30.13 in 10.0 mi West 3.5 mph - N/A   Clear